#timestamp,LO_Frequency,Hit,StdDev 
1627322415.4,286047000.1,N
1627322435.2,286047000.1,N
1627322455.1,286047002.8,Y
1627322456.0,286047002.8,P
1627322475.8,286047002.3,N
1627322495.6,286047000.0,N
1627322515.5,286047000.7,N
1627322535.3,286047001.0,N
1627322555.2,286047002.7,N
1627322575.0,286047000.5,N
1627322575.9,286047000.5,N
1627322595.7,286046998.5,N
1627322615.6,286047001.1,N
1627322635.4,286046998.1,N
1627322655.3,286047000.9,N
1627322675.1,286047000.9,N
1627322695.8,286047000.0,N
1627322715.7,286047000.9,N
1627322735.5,286046999.9,N
1627322755.4,286047002.8,N
1627322775.2,286047000.6,N
1627322795.0,286047001.0,N
1627322795.9,286047001.0,N
1627322815.8,286047000.9,N
1627322835.6,286047000.7,N
1627322855.4,286046999.9,N
1627322875.3,286047000.0,N
1627322895.1,286047000.4,N
1627322915.9,286047000.0,N
1627322935.7,286047000.0,N
1627322955.5,286047000.6,N
1627322975.4,286046998.8,N
1627322995.2,286046999.3,N
1627323015.0,286046999.2,N
1627323015.9,286046999.2,N
1627323035.8,286047001.0,N
1627323055.6,286046999.3,N
1627323075.5,286046998.9,N
1627323095.3,286046999.0,N
1627323115.1,286046998.7,N
1627323135.9,286047001.1,N
1627323155.7,286046998.5,N
1627323175.5,286047000.4,N
1627323195.4,286047001.2,N
1627323215.2,286046998.9,N
1627323235.1,286046998.1,N
1627323236.0,286046998.1,N
1627323255.8,286047000.1,N
1627323275.6,286047002.7,N
1627323295.5,286047001.3,N
1627323315.3,286047003.2,N
1627323335.1,286047003.6,N
1627323355.9,286047003.8,N
1627323375.7,286047003.6,N
1627323395.6,286047003.5,N
1627323415.4,286047003.3,N
1627323435.2,286047003.6,N
1627323455.1,286047003.5,N
1627323456.0,286047003.5,N
1627323475.8,286047004.4,N
1627323495.6,286047003.2,N
1627323515.5,286047003.7,N
1627323535.3,286047004.1,N
1627323555.2,286047004.4,N
1627323575.9,286047003.9,N
1627323595.7,286047004.4,N
1627323615.6,286047002.2,N
1627323635.4,286047004.0,N
1627323655.2,286047002.5,N
1627323675.1,286047002.0,N
1627323676.0,286047002.0,N
1627323695.8,286047002.1,N
1627323715.7,286046999.7,N
1627323735.5,286047002.0,N
1627323755.3,286047001.7,N
1627323775.2,286047002.1,N
1627323795.0,286047001.6,N
1627323795.9,286047001.6,N
1627323815.8,286047001.4,N
1627323835.6,286047004.0,Y
1627323855.4,286047001.0,P
1627323875.3,286047000.2,N
1627323895.1,286046999.9,N
1627323915.8,286047000.7,N
1627323935.7,286047000.2,N
1627323955.5,286047000.7,N
1627323975.4,286046998.1,N
1627323995.2,286046998.9,N
1627324015.0,286046999.0,N
1627324015.9,286046999.0,N
1627324035.8,286046999.2,N
1627324055.6,286046996.9,N
1627324075.4,286046996.6,N
1627324095.3,286046999.3,N
1627324115.1,286046998.6,N
1627324135.9,286046998.3,N
1627324155.7,286046998.8,N
1627324175.5,286046999.1,N
1627324195.4,286046996.5,N
1627324215.2,286046999.3,N
1627324235.0,286046999.5,N
1627324235.9,286046999.5,N
1627324255.8,286046999.0,N
1627324275.6,286046998.3,N
1627324295.5,286046999.1,N
1627324315.3,286046999.4,N
1627324335.1,286046999.3,N
1627324355.9,286046999.2,N
1627324375.7,286046998.9,N
1627324395.5,286046999.2,N
1627324415.4,286046996.7,Y
1627324435.2,286046998.3,P
1627324455.1,286046998.8,P
1627324456.0,286046998.8,P
1627324475.8,286047001.2,Y
1627324495.6,286046999.7,P
1627324515.5,286047000.1,N
1627324535.3,286047000.2,N
1627324555.1,286047000.3,N
1627324575.9,286047000.2,N
1627324595.7,286047000.6,N
1627324615.6,286046999.9,N
1627324635.4,286047000.5,N
1627324655.2,286047002.7,Y
1627324675.1,286047000.2,P
1627324676.0,286047000.2,N
1627324695.8,286047002.8,P
1627324715.7,286047002.2,N
1627324735.5,286047002.3,N
1627324755.3,286047000.3,N
1627324775.2,286047002.3,N
1627324795.9,286047002.4,N
1627324815.7,286047002.8,N
1627324835.6,286047002.3,N
1627324855.4,286047002.7,N
1627324875.2,286046999.8,N
1627324895.1,286046999.7,N
1627324896.0,286046999.7,N
1627324915.8,286046999.8,N
1627324935.7,286046999.8,N
1627324955.5,286047000.0,N
1627324975.3,286046998.2,N
1627324995.2,286047000.0,N
1627325015.0,286046999.9,N
1627325015.9,286046999.9,N
1627325035.8,286047000.2,N
1627325055.6,286047000.3,N
1627325075.4,286047002.8,N
1627325095.3,286047000.5,N
1627325115.1,286047000.3,N
1627325116.0,286047000.3,N
1627325135.8,286047000.0,N
1627325155.7,286047000.0,N
1627325175.5,286047002.8,N
1627325195.3,286047000.1,N
1627325215.2,286047002.0,N
1627325235.0,286047002.3,N
1627325235.9,286047002.3,N
1627325255.8,286047001.9,N
1627325275.6,286047001.4,N
1627325295.4,286047001.5,N
1627325315.3,286047001.4,N
1627325335.1,286047004.0,Y
1627325355.9,286047002.4,P
1627325375.7,286046998.2,N
1627325395.5,286047002.8,N
1627325415.4,286046999.8,N
1627325435.2,286046999.8,N
1627325455.0,286047000.2,N
1627325455.9,286047000.2,N
1627325475.8,286047001.5,N
1627325495.6,286047002.7,N
1627325515.4,286047002.0,N
1627325535.3,286047002.4,N
1627325555.1,286047002.1,N
1627325575.9,286047002.6,N
1627325595.7,286046999.9,N
1627325615.5,286047000.0,N
1627325635.4,286047000.1,N
1627325655.2,286047002.3,N
1627325675.0,286047002.6,N
1627325675.9,286047002.6,N
1627325695.8,286047002.4,N
1627325715.6,286047000.1,N
1627325735.5,286047002.2,N
1627325755.3,286047002.3,N
1627325775.1,286047002.2,N
1627325795.9,286047000.3,N
1627325845.7,286047002.7,E
1627325855.7,286047000.8,N
1627325875.5,286046998.9,P
1627325895.3,286046998.7,N
1627325915.2,286046998.9,N
1627325935.0,286046998.4,N
1627325935.9,286046998.4,N
1627325955.7,286046998.5,N
1627325975.6,286046998.9,N
1627325995.4,286046998.4,N
